軌道要素
Epoch 2005 Jan. 30.0 TT = JDT 2453400.5
T 2005 Jan. 31.31016 TT MPC
q 1.9198565 (2000.0) P Q
n 0.14058442 Peri. 347.18160 -0.02128487 -0.97754408
a 3.6630647 Node 103.74693 +0.93526930 -0.09357221
e 0.4758879 Incl. 12.46458 +0.35329631 +0.18881690
P 7.01
>From 190 observations 1990-2004, mean residual 0".58.
|